Glacier Park International Airport Kalispell US
ICAO: KGPI
IATA: FCA
Category: Medium
Scheduled Services: Yes

Elevation: 2977 ft
TransAlt. 18000 ft.

Airport Communications:
ATIS:132.625
SALT LAKE CITY CNTR:133.4
CTAF:124.55
GND:121.6
GREAT FALLS RDO:122.5
TWR:124.55
UNICOM:122.95

KGPI Zoom In..

Runways:

(A) RW 02 length 9007 ft width 150 ft
ILS 111.50 / hdg 20

(B) RW 12 length 3504 ft width 75 ft
---- / hdg 121

(C) RW 20 length 9007 ft width 150 ft
---- / hdg 200

(D) RW 30 length 3504 ft width 75 ft
---- / hdg 301

Location; KGPI
Day. 23 / Time. 09.55 Zulu
* Altimeter: 30.20
* Temperature: 08° c. 46.4°f.
* Wind from: 000° Speed 00 kn.
Dewpoint: 06° c.
Visibility: 10 Statute Miles.
Clouds: Clear (automated report).

KGPI 230955Z AUTO 00000KT 10SM CLR 08/06 A3020 RMK AO2 SLP218 T00830061


Wind - Calm.

 
 
jpsmedia.com for Web Design worldairports.se 2018   terms of use